Location: Bailleul
(50.3375°N, 2.8513°E)
Time: 14:07:03
(UTC+00:00)

NOSS 3-2 (C) - Visible Passes

Search period start: 22 October 2021 00:00
Search period end: 01 November 2021 00:00
Orbit: 773 x 1439 km, 63.4° (Epoch: 17 October)

Date Brightness Start Highest point End Pass type
(mag) Time Alt. Az. Time Alt. Az. Time Alt. Az.
22 Oct 5.0 17:23:19 10° WNW 17:28:45 29° N 17:34:58 10° NE visible
22 Oct 4.9 19:15:41 10° NW 19:21:45 32° NNE 19:23:45 28° NE visible
22 Oct 4.9 21:06:48 10° NW 21:11:10 40° NNW 21:11:10 40° NNW visible
22 Oct 6.2 22:57:52 10° NW 22:58:36 13° NW 22:58:36 13° NW visible
23 Oct 5.0 18:30:40 10° NW 18:36:25 29° N 18:40:18 19° NE visible
23 Oct 4.5 20:22:02 10° NW 20:27:45 47° N 20:27:45 47° N visible
23 Oct 5.8 22:12:57 10° NW 22:15:10 22° NW 22:15:10 22° NW visible
24 Oct 5.0 17:45:31 10° NW 17:51:04 28° N 17:56:55 12° ENE visible
24 Oct 4.5 19:37:15 10° NW 19:43:52 41° NNE 19:44:20 41° NE visible
24 Oct 5.2 21:28:08 10° NW 21:31:46 34° NW 21:31:46 34° NW visible
25 Oct 5.0 17:00:15 10° WNW 17:05:42 28° N 17:11:55 10° NE visible
25 Oct 4.7 18:52:24 10° NW 18:58:39 35° NNE 19:00:58 29° NE visible
25 Oct 4.6 20:43:22 10° NW 20:48:24 49° NNW 20:48:24 49° NNW visible
25 Oct 6.2 22:34:37 10° NW 22:35:50 15° WNW 22:35:50 15° WNW visible
26 Oct 4.9 18:07:27 10° NW 18:13:22 31° NNE 18:17:37 19° ENE visible
26 Oct 4.2 19:58:38 10° NW 20:05:03 57° NNE 20:05:03 57° NNE visible
26 Oct 5.6 21:49:37 10° NW 21:52:29 25° WNW 21:52:29 25° WNW visible
27 Oct 4.9 17:22:22 10° NW 17:28:01 28° N 17:34:18 11° ENE visible
27 Oct 4.3 19:13:52 10° NW 19:20:41 47° NNE 19:21:44 45° NE visible
27 Oct 5.0 21:04:45 10° NW 21:09:10 41° WNW 21:09:10 41° WNW visible
28 Oct 4.6 18:29:03 10° NW 18:35:32 39° NNE 18:38:27 29° ENE visible
28 Oct 4.2 20:19:57 10° NW 20:25:54 64° NW 20:25:54 64° NW visible
28 Oct 6.1 22:11:28 10° WNW 22:13:20 17° WNW 22:13:20 17° WNW visible
29 Oct 4.7 17:44:09 10° NW 17:50:17 33° NNE 17:55:13 17° ENE visible
29 Oct 3.9 19:35:13 10° NW 19:42:28 69° NE 19:42:40 69° NE visible
29 Oct 5.5 21:26:20 10° NW 21:30:07 29° WNW 21:30:07 29° WNW visible
30 Oct 4.9 16:59:10 10° NW 17:04:58 30° NNE 17:11:36 10° ENE visible
30 Oct 4.2 18:50:28 10° NW 18:57:28 54° NE 18:59:29 44° E visible
30 Oct 4.7 20:41:24 10° NW 20:46:56 48° W 20:46:56 48° W visible
31 Oct 4.4 18:05:41 10° NW 18:12:22 43° NNE 18:16:22 26° E visible
31 Oct 4.0 19:56:34 10° NW 20:03:49 78° WSW 20:03:49 78° WSW visible
31 Oct 6.0 21:48:27 10° WNW 21:51:16 19° W 21:51:16 19° W visible
